This is the latest recevied weather packets stored in our database for station/object XE2RCS-1. If no packets are shown the sender has not sent any weather packets the latest 10 day(s).
| Time | Temp. | Humidity | Pressure | Rain* | Wind** | Luminosity | Snow |
|---|---|---|---|---|---|---|---|
| 1788058857 | 22.78° C | 48% | 1018 hPa | 0 mm | - | - | - |
| 1788058256 | 22.78° C | 48% | 1018 hPa | 0 mm | - | - | - |
| 1788057655 | 22.78° C | 66% | 1019 hPa | 0 mm | - | - | - |
| 1788057055 | 23.33° C | 66% | 1021 hPa | 0 mm | - | - | - |
| 1788056454 | 22.78° C | 60% | 1021 hPa | 0 mm | - | - | - |
| 1788055853 | 23.33° C | 44% | 1020 hPa | 0 mm | - | - | - |
| 1788055253 | 23.33° C | 43% | 1018 hPa | 0 mm | - | - | - |
| 1788054652 | 23.33° C | 43% | 1018 hPa | 0 mm | - | - | - |
| 1788054067 | 23.89° C | 65% | 1018 hPa | 0 mm | - | - | - |
| 1788053451 | 23.89° C | 65% | 1021 hPa | 0 mm | - | - | - |
| 1788052850 | 23.89° C | 64% | 1020 hPa | 0 mm | - | - | - |
| 1788052250 | 24.44° C | 60% | 1020 hPa | 0 mm | - | - | - |
| 1788051649 | 24.44° C | 46% | 1018 hPa | 0 mm | - | - | - |
| 1788051048 | 24.44° C | 46% | 1018 hPa | 0 mm | - | - | - |
| 1788050448 | 24.44° C | 46% | 1018 hPa | 0 mm | - | - | - |
| 1788049847 | 25° C | 40% | 1020 hPa | 0 mm | - | - | - |
| 1788049247 | 25° C | 40% | 1020 hPa | 0 mm | - | - | - |
| 1788048646 | 20° C | 42% | 1020 hPa | 0 mm | - | - | - |
| 1788048045 | 21.11° C | 42% | 1018 hPa | 0 mm | - | - | - |
| 1788047445 | 22.22° C | 42% | 1017 hPa | 0 mm | - | - | - |
| 1788046844 | 23.33° C | 42% | 1017 hPa | 0 mm | - | - | - |
| 1788046243 | 24.44° C | 42% | 1016 hPa | 0 mm | - | - | - |
| 1788045643 | 24.44° C | 44% | 1016 hPa | 0 mm | - | - | - |
| 1788045042 | 24.44° C | 45% | 1016 hPa | 0 mm | - | - | - |
| 1788044442 | 24.44° C | 46% | 1016 hPa | 0 mm | - | - | - |
* Rain latest hour (hover to see other rain measurements)
** Current wind speed in m/s (hover to see current wind gust speed)